Location: *
(53.9002°N, 27.5624°E)
Time: 07:21:18
(UTC+00:00)

SKYMED 2 - Pass Details

Date: 12 November 2019
Orbit: 621 x 623 km, 97.9° (Epoch: 09 December)

Event Time Altitude Azimuth Distance (km) Brightness Sun altitude
Exits shadow 16:13:12 - 21° (NNE) 2,085 6.0 -17.1°
Reaches altitude 10° 16:13:23 10° 21° (NNE) 2,007 5.9 -17.1°
Maximum altitude 16:17:42 58° 101° (ESE) 729 3.6 -17.7°
Drops below altitude 10° 16:21:59 10° 181° (S) 1,990 6.2 -18.3°
Sets 16:24:11 0° 186° (S) 2,891 7.1 -18.7°
